Powrót do katalogu

DELTA 1 DEB

AktywnySSO
NORAD 12223·DEBRIS·🇺🇸 United States

Wystrzelony Mar 5, 1978 z Vandenberg Space Force Base

Loading…

Następne Przeloty (najbliższe 24 godziny)

TLE

ŚwieżeSource: Space-Track

Epoka: Sep 14, 2026, 13:04 UTC

1 12223U 78026BQ  26257.54484311 -.00000062  00000-0 -99788-5 0  9991
2 12223  99.1653 291.3249 0040057 221.8882 137.9218 14.04127245335420

Śledź DELTA 1 DEB w czasie rzeczywistym z AllMySat

Download on the App Store